Flight Track Log - Related Links

Times and Time Zones

All times are in EDT time to prevent confusion due to time zone crossing. See the QLK371 flight status page for this flight to view local times or setup timezone preferences in your user account.

Time Position Orientation Groundspeed Altitude Reporting Facility
EDT Latitude Longitude Course Direction KTS MPH feet Rate Location/Type
Fri 04:54:23 PM -25.3460 152.8377 194° South 144 166 3,100  Level Aus ATC (RADAR)
Fri 04:55:28 PM -25.3867 152.8262 194° South 132 152 4,800 1,569 Climbing Aus ATC (RADAR)
Fri 04:56:33 PM -25.4283 152.7884 219° Southwest 169 194 6,500 1,440 Climbing Aus ATC (RADAR)
Fri 04:57:33 PM -25.4704 152.7539 217° Southwest 183 211 7,800 1,344 Climbing Aus ATC (RADAR)
Fri 04:58:38 PM -25.5171 152.7139 218° Southwest 187 215 9,300 1,344 Climbing Aus ATC (RADAR)
Fri 04:59:38 PM -25.5703 152.7117 182° South 194 223 10,600 1,200 Climbing Aus ATC (RADAR)
Fri 05:00:13 PM -25.6018 152.7140 176° South 195 224 11,200 1,029 Climbing Aus ATC (RADAR)
Fri 05:00:48 PM -25.6330 152.7149 178° South 193 222 11,800 1,029 Climbing Aus ATC (RADAR)
Fri 05:01:23 PM -25.6649 152.7161 178° South 196 226 12,400 960 Climbing Aus ATC (RADAR)
Fri 05:02:03 PM -25.7015 152.7171 179° South 199 229 13,000 987 Climbing Aus ATC (RADAR)
Fri 05:02:42 PM -25.7376 152.7184 178° South 196 226 13,700 1,043 Climbing Aus ATC (RADAR)
Fri 05:03:12 PM -25.7649 152.7197 178° South 197 227 14,200 900 Climbing Aus ATC (RADAR)
Fri 05:03:42 PM -25.7921 152.7208 178° South 196 226 14,600 771 Climbing Aus ATC (RADAR)
Fri 05:04:22 PM -25.8288 152.7219 178° South 198 228 15,100 771 Climbing Aus ATC (RADAR)
Fri 05:04:52 PM -25.8564 152.7237 177° South 200 230 15,500 257 Climbing Aus ATC (RADAR)
Fri 05:05:32 PM -25.8973 152.7251 178° South 223 257 15,400 -80 Descending Aus ATC (RADAR)
Fri 05:06:07 PM -25.9352 152.7268 178° South 232 267 15,400  Level Aus ATC (RADAR)
Fri 05:06:47 PM -25.9796 152.7292 177° South 242 278 15,400  Level Aus ATC (RADAR)
Fri 05:07:47 PM -26.0495 152.7314 178° South 255 293 15,400  Level Aus ATC (RADAR)
Fri 05:08:27 PM -26.0965 152.7333 178° South 254 292 15,400  Level Aus ATC (RADAR)
Fri 05:08:57 PM -26.1321 152.7346 178° South 255 293 15,400  Level Aus ATC (RADAR)
Fri 05:09:32 PM -26.1734 152.7370 177° South 255 293 15,400  Level Aus ATC (RADAR)
Fri 05:10:07 PM -26.2150 152.7388 178° South 256 295 15,400  Level Aus ATC (RADAR)
Fri 05:10:47 PM -26.2626 152.7410 178° South 256 295 15,400  Level Aus ATC (RADAR)
Fri 05:11:27 PM -26.3102 152.7428 178° South 257 296 15,400  Level Aus ATC (RADAR)
Fri 05:12:26 PM -26.3817 152.7464 177° South 258 297 15,400  Level Aus ATC (RADAR)
Fri 05:13:01 PM -26.4239 152.7481 178° South 260 299 15,400  Level Aus ATC (RADAR)
Fri 05:13:36 PM -26.4655 152.7502 177° South 258 297 15,400  Level Aus ATC (RADAR)
Fri 05:14:06 PM -26.5016 152.7515 178° South 259 298 15,400  Level Aus ATC (RADAR)
Fri 05:14:46 PM -26.5495 152.7534 178° South 259 298 15,400  Level Aus ATC (RADAR)
Fri 05:15:21 PM -26.5916 152.7553 178° South 259 298 15,400  Level Aus ATC (RADAR)
Fri 05:15:51 PM -26.6278 152.7568 178° South 260 299 15,400 -185 Level Aus ATC (RADAR)
Fri 05:16:26 PM -26.6700 152.7562 181° South 258 297 15,200 -600 Descending Aus ATC (RADAR)
Fri 05:17:01 PM -26.7132 152.7485 189° South 266 306 14,700 -923 Descending Aus ATC (RADAR)
Fri 05:17:31 PM -26.7491 152.7586 166° South 265 305 14,200 -1,341 Descending Aus ATC (RADAR)
Fri 05:18:26 PM -26.8063 152.7964 149° Southeast 255 293 12,800 -1,527 Descending Aus ATC (RADAR)
Fri 05:19:21 PM -26.8630 152.8311 151° Southeast 250 288 11,400 -1,642 Descending Aus ATC (RADAR)
Fri 05:20:01 PM -26.9042 152.8560 152° Southeast 248 285 10,200 -1,714 Descending Aus ATC (RADAR)
Fri 05:20:31 PM -26.9344 152.8746 151° Southeast 243 280 9,400 -1,662 Descending Aus ATC (RADAR)
Fri 05:21:06 PM -26.9680 152.8951 152° Southeast 233 268 8,400 -1,360 Descending Aus ATC (RADAR)
Fri 05:21:46 PM -27.0021 152.9244 143° Southeast 228 262 7,700 -1,040 Descending Aus ATC (RADAR)
Fri 05:22:21 PM -27.0326 152.9492 144° Southeast 228 262 7,100 -1,040 Descending Aus ATC (RADAR)
Fri 05:23:01 PM -27.0677 152.9782 144° Southeast 230 265 6,400 -1,038 Descending Aus ATC (RADAR)
Fri 05:24:05 PM -27.1246 153.0245 144° Southeast 227 261 5,300 -1,085 Descending Aus ATC (RADAR)
Fri 05:24:35 PM -27.1500 153.0452 144° Southeast 223 257 4,700 -1,114 Descending Aus ATC (RADAR)
Fri 05:25:15 PM -27.1831 153.0723 144° Southeast 217 250 4,000 -960 Descending Aus ATC (RADAR)
Fri 05:25:50 PM -27.2117 153.0949 145° Southeast 212 244 3,500 -975 Descending Aus ATC (RADAR)
Fri 05:26:35 PM -27.2459 153.1231 144° Southeast 196 226 2,700 -960 Descending Aus ATC (RADAR)
Fri 05:27:30 PM -27.2811 153.1518 144° Southeast 164 189 1,900 -821 Descending Aus ATC (RADAR)
Fri 05:28:10 PM -27.3070 153.1666 153° Southeast 156 180 1,400 -720 Descending Aus ATC (RADAR)
Fri 05:28:45 PM -27.3288 153.1621 190° South 137 158 1,000 -600 Descending Aus ATC (RADAR)
Fri 05:29:20 PM -27.3455 153.1515 209° Southwest 117 135 700 -514 Descending Aus ATC (RADAR)
Fri 05:29:55 PM -27.3603 153.1432 207° Southwest 103 119 400 -514 Descending Aus ATC (RADAR)
Fri 05:30:30 PM -27.3735 153.1347 210° Southwest 95 109 100 -514 Descending Aus ATC (RADAR)

Login

Don't have an account? Register now (free) for customized features, flight alerts, and more!